TimeMDT,TemperatureF,Dew PointF,Humidity,Sea Level PressureIn,VisibilityMPH,Wind Direction,Wind SpeedMPH,Gust SpeedMPH,PrecipitationIn,Events,Conditions,WindDirDegrees,DateUTC
12:58 AM,53.2,27.0,36,29.97,10.0,SSW,4.6,-,N/A,,Mostly Cloudy,210,2013-05-07 06:58:00
1:58 AM,48.4,28.4,46,29.96,10.0,WSW,4.6,-,N/A,,Scattered Clouds,240,2013-05-07 07:58:00
2:58 AM,47.1,28.6,49,29.94,10.0,Calm,Calm,-,N/A,,Clear,0,2013-05-07 08:58:00
3:58 AM,44.6,28.8,54,29.92,10.0,West,3.5,-,N/A,,Clear,270,2013-05-07 09:58:00
4:58 AM,42.4,28.6,58,29.93,10.0,WSW,2.3,-,N/A,,Mostly Cloudy,240,2013-05-07 10:58:00
5:58 AM,45.0,28.0,52,29.91,10.0,South,4.6,-,N/A,,Clear,190,2013-05-07 11:58:00
6:58 AM,48.4,31.1,51,29.92,10.0,SSW,3.5,-,N/A,,Clear,200,2013-05-07 12:58:00
7:58 AM,53.6,31.5,43,29.90,10.0,South,9.2,-,N/A,,Clear,170,2013-05-07 13:58:00
8:58 AM,60.4,37.6,43,29.89,10.0,South,12.7,-,N/A,,Clear,180,2013-05-07 14:58:00
9:58 AM,64.6,40.5,41,29.88,10.0,SSE,16.1,-,N/A,,Clear,160,2013-05-07 15:58:00
10:58 AM,66.9,41.2,39,29.87,10.0,South,16.1,-,N/A,,Clear,180,2013-05-07 16:58:00
11:58 AM,71.1,41.9,35,29.86,10.0,South,17.3,-,N/A,,Clear,170,2013-05-07 17:58:00
12:58 PM,73.6,41.4,31,29.82,10.0,South,15.0,19.6,N/A,,Clear,170,2013-05-07 18:58:00
1:58 PM,75.0,40.8,29,29.82,10.0,SSW,16.1,19.6,N/A,,Mostly Cloudy,200,2013-05-07 19:58:00
2:29 PM,75.2,37.4,25,29.84,10.0,SSW,17.3,24.2,N/A,,Mostly Cloudy,210,2013-05-07 20:29:00
2:30 PM,75.2,37.4,25,29.84,10.0,WSW,13.8,24.2,N/A,,Mostly Cloudy,240,2013-05-07 20:30:00
2:58 PM,75.4,36.1,24,29.81,10.0,WSW,18.4,27.6,N/A,,Scattered Clouds,250,2013-05-07 20:58:00
3:02 PM,75.2,35.6,24,29.83,10.0,West,16.1,27.6,N/A,,Scattered Clouds,260,2013-05-07 21:02:00
3:58 PM,73.0,37.8,28,29.80,10.0,WSW,12.7,-,N/A,,Clear,250,2013-05-07 21:58:00
4:58 PM,73.2,37.9,28,29.79,10.0,WSW,5.8,-,N/A,,Clear,250,2013-05-07 22:58:00
5:51 PM,69.8,44.6,40,29.81,10.0,ESE,20.7,27.6,N/A,,Clear,110,2013-05-07 23:51:00
5:58 PM,68.9,44.8,42,29.81,10.0,ESE,20.7,27.6,N/A,,Clear,120,2013-05-07 23:58:00
6:58 PM,64.0,44.2,49,29.82,10.0,SE,17.3,25.3,N/A,,Clear,140,2013-05-08 00:58:00
7:58 PM,59.2,43.2,55,29.85,10.0,SE,8.1,-,N/A,,Clear,140,2013-05-08 01:58:00
8:58 PM,57.7,43.7,60,29.86,10.0,South,10.4,-,N/A,,Clear,180,2013-05-08 02:58:00
9:58 PM,56.5,44.4,64,29.88,10.0,South,8.1,16.1,N/A,,Clear,190,2013-05-08 03:58:00
10:58 PM,55.6,44.6,67,29.87,10.0,South,9.2,-,N/A,,Clear,180,2013-05-08 04:58:00
11:58 PM,52.7,44.2,73,29.86,10.0,SSE,8.1,-,N/A,,Clear,150,2013-05-08 05:58:00